Weather History for PHMK - July, 2013

Change the Weather History Date:

Monday, July 8, 2013

  Actual Average (WUND) Record (WUND)
Temperature  
Mean Temperature 77 °F -  
Max Temperature 84 °F - - (-1)
Min Temperature 70 °F - - (-1)
Cooling Degree Days 12    
Growing Degree Days 27 (Base 50)    
Moisture  
Dew Point 69 °F    
Average Humidity 76    
Maximum Humidity 97    
Minimum Humidity 61    
Precipitation  
Precipitation 0.00 in - - ()
Sea Level Pressure  
Sea Level Pressure 29.99 in    
Wind  
Wind Speed 8 mph (NE)    
Max Wind Speed 14 mph    
Max Gust Speed 20 mph    
Visibility 10 miles    
Events      
Averages and records for this station are not official NWS values.
T = Trace of Precipitation, MM = Missing Value Source: NWS Daily Summary

Daily Weather History Graph

Daily Weather History Graph

Search for Another Location

Airport or City:

Trip Planner

Search our weather history database for the weather conditions in past years. The results will help you decide how hot, cold, wet, or windy it might be!

Date:

Astronomy

Jul. 08, 2013 Rise Set
Actual Time 5:52 AM HST 7:14 PM HST
Civil Twilight 5:28 AM HST 7:38 PM HST
Nautical Twilight 4:59 AM HST 8:07 PM HST
Astronomical Twilight 4:28 AM HST 8:38 PM HST
Moon 6:20 AM HST (7/8) 7:37 PM HST (7/8)
Length of Visible Light 14h 10m
Length of Day
13h 21m
New Moon, 0% of the Moon is Illuminated
Jul 8
New Moon
Jul 15
First Quarter
Jul 22
Full
Jul 29
Last Quarter
Aug 6
New

Hourly Weather History & Observations

Time (HST) Temp. Heat Index Dew Point Humidity Pressure Visibility Wind Dir Wind Speed Gust Speed Precip Events Conditions
12:54 AM 73.0 °F - 69.1 °F 87% 29.98 in 10.0 mi NNE 5.8 mph - N/A   Clear
1:54 AM 72.0 °F - 68.0 °F 87% 29.96 in 10.0 mi NE 4.6 mph - N/A   Clear
2:54 AM 72.0 °F - 70.0 °F 93% 29.95 in 10.0 mi NNE 6.9 mph - N/A   Clear
3:54 AM 72.0 °F - 71.1 °F 97% 29.94 in 10.0 mi NNE 9.2 mph - N/A   Clear
4:54 AM - - - N/A% 29.94 in 10.0 mi NNE 6.9 mph - N/A   Clear
5:54 AM 70.0 °F - 66.9 °F 90% 29.96 in 10.0 mi ENE 4.6 mph - N/A   Clear
6:54 AM 73.9 °F - 69.1 °F 85% 29.97 in 10.0 mi NE 9.2 mph 17.3 mph N/A   Clear
7:54 AM 78.1 °F - 69.1 °F 74% 29.99 in 10.0 mi NE 8.1 mph - N/A   Clear
8:54 AM 80.1 °F 82.7 °F 68.0 °F 67% 30.00 in 10.0 mi SSE 8.1 mph - N/A   Clear
9:54 AM 82.0 °F 85.5 °F 69.1 °F 65% 30.00 in 10.0 mi NE 8.1 mph - N/A   Partly Cloudy
10:54 AM 81.0 °F 84.1 °F 69.1 °F 67% 30.00 in 10.0 mi NE 9.2 mph 17.3 mph N/A   Overcast
11:54 AM 82.9 °F 87.0 °F 70.0 °F 65% 29.99 in 10.0 mi NE 11.5 mph - N/A   Scattered Clouds
12:54 PM 84.0 °F 87.8 °F 69.1 °F 61% 29.98 in 10.0 mi NNE 12.7 mph 18.4 mph N/A   Mostly Cloudy
1:54 PM 84.9 °F 89.4 °F 70.0 °F 61% 29.97 in 10.0 mi NNE 13.8 mph 19.6 mph N/A   Scattered Clouds
2:54 PM 81.0 °F 84.4 °F 70.0 °F 69% 29.97 in 10.0 mi NNE 13.8 mph - N/A   Overcast
3:54 PM 81.0 °F 84.1 °F 69.1 °F 67% 29.97 in 10.0 mi NE 12.7 mph - N/A   Mostly Cloudy
4:54 PM 82.9 °F 86.5 °F 69.1 °F 63% 29.96 in 10.0 mi NE 9.2 mph - N/A   Scattered Clouds
5:54 PM 82.9 °F 86.5 °F 69.1 °F 63% 29.98 in 10.0 mi NNE 6.9 mph - N/A   Scattered Clouds
6:54 PM 79.0 °F - 69.1 °F 72% 30.00 in 10.0 mi SW 8.1 mph - N/A   Clear
7:54 PM 75.9 °F - 68.0 °F 76% 30.03 in 10.0 mi NE 5.8 mph - N/A   Partly Cloudy
8:54 PM 75.0 °F - 68.0 °F 79% 30.04 in 10.0 mi NE 8.1 mph - N/A   Clear
9:54 PM 73.0 °F - 68.0 °F 84% 30.06 in 10.0 mi ENE 5.8 mph - N/A   Clear
10:54 PM 73.9 °F - 68.0 °F 82% 30.07 in 10.0 mi NNE 5.8 mph - N/A   Clear
11:54 PM 72.0 °F - 68.0 °F 87% 30.06 in 10.0 mi NE 5.8 mph - N/A   Clear